Back to catalog

WISDOM-A

AliveScienceSSO
NORAD 66688·PAYLOAD·🇭🇺 Hungary

Launched Nov 28, 2025 from Vandenberg Space Force Base

Loading…

Next Passes (next 24 hours)

TLE

FreshSource: Space-Track

Epoch: Sep 14, 2026, 11:27 UTC

1 66688U 25276Y   26257.47766617  .00004088  00000-0  19253-3 0  9995
2 66688  97.4145 329.4375 0006062  57.9348 302.2475 15.20064065 43974

Track WISDOM-A in real time with AllMySat

Download on the App Store